DG8RAD-1 Weather Reports


time (UTC)temp
C
wind
direction
speed
KPH
gust
KPH
rain 1hr
cm
rain 24hr
cm
rain mn
cm
humidity
%
barometer
mb
20260506121505 27 0 0.0 0.0 0.00 0.00 0.00 30 1007.0
20260506120005 27 0 0.0 0.0 0.00 0.00 0.00 30 1007.0
20260506114505 26 0 0.0 0.0 0.00 0.00 0.00 31 1008.0
20260506113005 26 0 0.0 0.0 0.00 0.00 0.00 30 1008.0
20260506111505 26 0 0.0 0.0 0.00 0.00 0.00 31 1008.0
20260506110005 26 0 0.0 0.0 0.00 0.00 0.00 32 1008.0
20260506104505 26 0 0.0 0.0 0.00 0.00 0.00 31 1008.0
20260506103005 25 0 0.0 0.0 0.00 0.00 0.00 31 1008.0
20260506101505 25 0 0.0 0.0 0.00 0.00 0.00 31 1009.0
20260506100005 24 0 0.0 0.0 0.00 0.00 0.00 32 1009.0
20260506094505 24 0 0.0 0.0 0.00 0.00 0.00 34 1009.0
20260506093005 24 0 0.0 0.0 0.00 0.00 0.00 33 1009.0
20260506091505 24 0 0.0 0.0 0.00 0.00 0.00 34 1008.0
20260506090005 24 0 0.0 0.0 0.00 0.00 0.00 34 1009.0
20260506084505 23 0 0.0 0.0 0.00 0.00 0.00 33 1009.0
20260506083005 23 0 0.0 0.0 0.00 0.00 0.00 34 1009.0
20260506081506 22 0 0.0 0.0 0.00 0.00 0.00 34 1009.0
20260506073005 21 0 0.0 0.0 0.00 0.00 0.00 38 1009.0
20260506071505 22 0 0.0 0.0 0.00 0.00 0.00 38 1009.0
20260506061505 20 0 0.0 0.0 0.00 0.00 0.00 48 1009.0
20260506044505 17 0 0.0 0.0 0.00 0.00 0.00 52 1010.0
20260506043005 17 0 0.0 0.0 0.00 0.00 0.00 52 1010.0
20260506041505 17 0 0.0 0.0 0.00 0.00 0.00 52 1010.0
20260506040005 18 0 0.0 0.0 0.00 0.00 0.00 52 1010.0
20260506034505 17 0 0.0 0.0 0.00 0.00 0.00 52 1010.0
20260506033005 18 0 0.0 0.0 0.00 0.00 0.00 51 1010.0
20260506031505 18 0 0.0 0.0 0.00 0.00 0.00 51 1010.0
20260506030005 18 0 0.0 0.0 0.00 0.00 0.00 51 1010.0
20260506024505 18 0 0.0 0.0 0.00 0.00 0.00 51 1011.0
20260506023005 18 0 0.0 0.0 0.00 0.00 0.00 51 1011.0
20260506021505 18 0 0.0 0.0 0.00 0.00 0.00 51 1010.0
20260506020005 17 0 0.0 0.0 0.00 0.00 0.00 51 1010.0
20260506014505 18 0 0.0 0.0 0.00 0.00 0.00 52 1011.0
20260506013005 18 0 0.0 0.0 0.00 0.00 0.00 50 1011.0
20260506011505 18 0 0.0 0.0 0.00 0.00 0.00 51 1011.0
20260506010005 18 0 0.0 0.0 0.00 0.00 0.00 52 1011.0
20260506004505 18 0 0.0 0.0 0.00 0.00 0.00 52 1011.0
20260506003005 18 0 0.0 0.0 0.00 0.00 0.00 52 1011.0
20260506001505 18 0 0.0 0.0 0.00 0.00 0.00 52 1011.0
20260506000005 19 0 0.0 0.0 0.00 0.00 0.00 51 1011.0
20260505234505 19 0 0.0 0.0 0.00 0.00 0.00 51 1011.0
20260505233005 20 0 0.0 0.0 0.00 0.00 0.00 50 1011.0
20260505231505 20 0 0.0 0.0 0.00 0.00 0.00 51 1011.0
20260505230005 20 0 0.0 0.0 0.00 0.00 0.00 52 1011.0
20260505214505 20 0 0.0 0.0 0.00 0.00 0.00 53 1012.0
20260505213005 20 0 0.0 0.0 0.00 0.00 0.00 52 1012.0
20260505211505 21 0 0.0 0.0 0.00 0.00 0.00 50 1012.0
20260505210006 21 0 0.0 0.0 0.00 0.00 0.00 49 1012.0
20260505204505 21 0 0.0 0.0 0.00 0.00 0.00 49 1011.0
20260505203005 21 0 0.0 0.0 0.00 0.00 0.00 47 1011.0
20260505201505 22 0 0.0 0.0 0.00 0.00 0.00 44 1011.0
20260505200005 22 0 0.0 0.0 0.00 0.00 0.00 41 1011.0
20260505194505 22 0 0.0 0.0 0.00 0.00 0.00 40 1010.0
20260505193005 22 0 0.0 0.0 0.00 0.00 0.00 39 1010.0
20260505191505 23 0 0.0 0.0 0.00 0.00 0.00 38 1009.0
20260505190005 23 0 0.0 0.0 0.00 0.00 0.00 37 1009.0
20260505184505 23 0 0.0 0.0 0.00 0.00 0.00 37 1009.0
20260505183005 23 0 0.0 0.0 0.00 0.00 0.00 36 1009.0
20260505181505 23 0 0.0 0.0 0.00 0.00 0.00 35 1009.0
20260505180005 23 0 0.0 0.0 0.00 0.00 0.00 36 1009.0
20260505174505 23 0 0.0 0.0 0.00 0.00 0.00 34 1009.0
20260505173005 24 0 0.0 0.0 0.00 0.00 0.00 32 1009.0
20260505171505 25 0 0.0 0.0 0.00 0.00 0.00 33 1009.0
20260505170011 25 0 0.0 0.0 0.00 0.00 0.00 33 1009.0
20260505164505 26 0 0.0 0.0 0.00 0.00 0.00 33 1009.0
20260505163005 26 0 0.0 0.0 0.00 0.00 0.00 35 1009.0
20260505161505 27 0 0.0 0.0 0.00 0.00 0.00 34 1009.0
20260505153005 25 0 0.0 0.0 0.00 0.00 0.00 37 1009.0
20260505151505 26 0 0.0 0.0 0.00 0.00 0.00 37 1009.0
20260505124505 28 0 0.0 0.0 0.00 0.00 0.00 22 1008.0
20260505123005 29 0 0.0 0.0 0.00 0.00 0.00 21 1009.0